This is the latest recevied weather packets stored in our database for station/object KE5VT. If no packets are shown the sender has not sent any weather packets the latest 10 day(s).
| Time | Temp. | Humidity | Pressure | Rain* | Wind** | Luminosity | Snow |
|---|---|---|---|---|---|---|---|
| 1787682856 | 30.56° C | 46% | 1014.1 hPa | 0 mm | - | 556 W/m² | - |
| 1787682552 | 30° C | 47% | 1014.1 hPa | 0 mm | - | 664 W/m² | - |
| 1787682247 | 30° C | 47% | 1014.2 hPa | 0 mm | - | 667 W/m² | - |
| 1787681943 | 29.44° C | 50% | 1014.5 hPa | 0 mm | - | 674 W/m² | - |
| 1787681643 | 28.33° C | 50% | 1014.6 hPa | 0 mm | - | 678 W/m² | - |
| 1787681337 | 28.89° C | 50% | 1014.7 hPa | 0 mm | - | 684 W/m² | - |
| 1787681033 | 29.44° C | 50% | 1014.7 hPa | 0 mm | - | 689 W/m² | - |
| 1787680733 | 30° C | 47% | 1014.7 hPa | 0 mm | - | 691 W/m² | - |
| 1787680433 | 30.56° C | 46% | 1014.9 hPa | 0 mm | - | 693 W/m² | - |
| 1787680131 | 29.44° C | 47% | 1014.9 hPa | 0 mm | - | 695 W/m² | - |
| 1787679826 | 28.89° C | 49% | 1015 hPa | 0 mm | - | 696 W/m² | - |
| 1787679525 | 29.44° C | 49% | 1015.2 hPa | 0 mm | - | 697 W/m² | - |
| 1787679222 | 28.89° C | 47% | 1015.1 hPa | 0 mm | - | 697 W/m² | - |
| 1787678917 | 27.78° C | 50% | 1015.3 hPa | 0 mm | - | 701 W/m² | - |
| 1787678616 | 27.78° C | 50% | 1015.2 hPa | 0 mm | - | 712 W/m² | - |
| 1787678311 | 29.44° C | 49% | 1015.1 hPa | 0 mm | - | 703 W/m² | - |
| 1787678007 | 27.78° C | 48% | 1015.2 hPa | 0 mm | - | 665 W/m² | - |
| 1787677702 | 27.78° C | 50% | 1015.4 hPa | 0 mm | - | 706 W/m² | - |
| 1787677401 | 27.78° C | 49% | 1015.6 hPa | 0 mm | - | 693 W/m² | - |
| 1787677100 | 27.22° C | 52% | 1015.7 hPa | 0 mm | - | 699 W/m² | - |
| 1787676797 | 26.11° C | 53% | 1015.8 hPa | 0 mm | - | 693 W/m² | - |
| 1787676491 | 26.11° C | 53% | 1015.9 hPa | 0 mm | - | 622 W/m² | - |
| 1787676189 | 26.67° C | 53% | 1015.8 hPa | 0 mm | - | 694 W/m² | - |
| 1787675888 | 26.11° C | 54% | 1015.7 hPa | 0 mm | - | 697 W/m² | - |
| 1787675585 | 25.56° C | 54% | 1015.8 hPa | 0 mm | - | 690 W/m² | - |
* Rain latest hour (hover to see other rain measurements)
** Current wind speed in m/s (hover to see current wind gust speed)